SCP
0 0 0 1 1 0 0 0 0 0 0 0 0 0 0 0 0 0 0 0 0 0 0 0 0 0 0 0 0 0 0 0
0 0 0 1 1 1 1 1 0 0 0 0 0 0 0 0 0 0 0 0 0 0 0 0 0 0 0 0 0 0 0 0
0 0 0 0 1 1 1 1 1 1 0 0 0 0 0 0 0 0 0 0 0 0 0 0 0 0 0 0 0 0 0 0
0 0 1 1 1 2 2 1 1 1 1 0 0 0 0 1 1 1 1 0 0 0 0 0 0 0 0 0 0 0 0 0
0 1 1 1 1 1 2 4 2 1 1 0 0 0 0 1 1 1 1 1 1 1 0 0 0 0 0 0 0 0 0 0
0 3 2 1 1 1 2 3 4 2 1 1 1 1 1 1 1 1 1 1 1 1 0 0 0 0 0 0 0 0 0 0
0 1 2 2 1 1 2 2 3 2 1 1 1 1 1 1 0 0 1 1 1 1 1 0 0 0 0 0 0 0 0 0
0 0 1 1 2 2 2 2 2 2 2 2 1 1 1 1 0 1 0 1 1 1 1 1 0 0 0 0 0 0 0 0
0 0 0 1 2 3 2 1 1 1 1 1 1 0 1 1 1 1 0 1 1 1 0 0 0 0 0 0 0 0 0 0
0 0 0 0 2 3 1 1 1 1 1 1 1 1 1 1 1 0 0 1 0 0 0 0 0 0 0 0 0 0 0 0
0 0 0 0 1 1 1 1 1 1 1 0 1 1 1 1 1 1 1 1 1 1 0 0 0 0 0 0 0 0 0 0
0 0 0 0 2 1 1 1 2 1 1 1 1 1 1 1 1 1 1 1 1 1 1 0 0 0 0 0 0 0 0 0
0 0 0 2 3 2 2 4 3 2 1 1 1 1 1 1 1 1 1 1 1 1 1 0 0 0 0 0 0 0 0 0
0 0 0 3 3 2 3 3 4 2 1 1 1 1 1 1 1 1 1 1 1 1 0 0 0 0 0 0 0 0 0 0
0 1 1 4 3 3 3 4 3 1 1 1 1 1 1 1 1 1 1 1 1 1 0 0 0 0 0 0 0 0 0 0
0 1 2 4 3 3 4 4 2 2 1 1 1 0 1 1 1 1 1 1 1 0 0 0 0 0 0 0 0 0 0 0
1 1 2 3 2 3 3 2 1 1 1 0 0 0 0 1 1 1 1 1 0 0 0 0 0 0 0 0 0 0 0 0
1 1 1 1 2 2 1 1 1 1 0 0 0 0 1 1 1 1 1 0 0 0 0 0 0 0 0 0 0 0 0 0
1 0 1 1 1 1 0 1 1 0 0 0 0 0 1 1 0 1 1 0 0 0 0 0 0 0 0 0 0 -0 0 0
Wind_Speed_500mb
24 25 30 31 31 32 35 36 34 32 28 22 16 10 6 3 9 11 10 7 10 15 15 16 18 19 18 17 15 15 20 21
23 20 28 33 35 37 38 40 38 36 32 27 21 16 12 10 13 17 18 14 12 15 19 20 21 22 25 27 24 23 27 23
34 34 33 34 38 40 42 44 44 42 37 32 28 23 21 18 18 22 23 22 18 19 21 22 23 24 27 29 30 29 32 31
40 49 46 47 44 47 49 50 50 48 43 39 36 32 29 27 25 26 25 23 17 16 17 20 23 25 27 28 33 37 35 36
46 54 56 52 50 51 55 58 57 55 51 48 44 40 37 35 31 28 29 22 19 20 17 20 24 27 28 30 31 33 36 37
45 54 63 63 61 57 58 61 64 61 59 57 53 49 46 44 36 30 29 20 22 25 24 22 21 24 27 28 29 28 27 32
37 41 56 58 57 65 60 60 68 67 66 67 63 59 56 48 40 34 32 21 24 24 26 24 21 13 11 14 23 23 18 16
44 41 32 42 53 64 69 58 59 71 75 73 67 66 62 54 43 37 30 23 30 26 31 24 23 23 16 9 2 6 14 19
51 42 40 43 43 60 74 68 61 57 69 75 72 73 69 60 51 40 31 35 33 31 28 23 24 21 26 23 15 14 17 25
55 37 37 44 52 60 73 77 67 61 54 52 48 56 64 62 45 37 42 36 32 32 29 23 26 27 28 28 24 22 33 32
34 34 45 41 45 56 69 80 69 63 54 49 42 40 45 43 36 38 38 31 33 35 31 37 39 30 35 35 32 27 25 36
35 44 48 45 41 44 61 76 72 64 54 51 43 39 39 40 38 39 41 45 43 43 45 40 43 47 51 45 38 33 30 30
37 46 47 43 42 38 57 77 66 55 50 43 40 44 41 37 42 43 40 42 41 43 46 44 40 39 40 35 38 35 28 32
36 47 37 47 48 46 48 76 80 68 54 50 48 49 41 39 43 42 38 30 35 42 44 45 46 39 34 34 31 42 41 38
51 37 42 46 47 48 50 63 70 70 54 48 41 28 34 34 38 39 32 28 37 43 43 42 42 32 29 28 30 33 35 34
41 37 43 48 49 50 56 57 60 54 55 48 45 38 36 38 36 33 33 38 44 45 40 39 32 29 30 30 30 29 26 27
45 42 40 41 45 50 51 45 36 39 46 39 37 41 38 39 41 43 40 39 41 43 40 34 28 28 29 32 27 20 11 23
42 43 32 31 43 43 39 30 27 27 24 24 28 36 41 41 42 40 36 32 28 28 28 25 25 30 29 28 28 18 10 13
45 32 25 29 40 40 33 30 35 38 30 33 35 29 32 34 38 37 35 29 26 26 24 22 21 24 24 26 28 33 23 8
Wind_Direction_500mb
213 206 199 197 199 200 200 196 193 193 196 196 195 200 214 298 332 330 311 305 283 277 266 269 271 274 280 273 260 249 266 272
220 237 211 212 209 208 207 205 203 202 205 211 217 223 239 267 296 308 316 315 295 273 278 276 266 262 261 262 261 246 251 253
205 221 242 220 219 216 215 214 214 212 214 219 228 234 244 257 277 288 299 314 307 291 281 282 275 270 266 263 257 256 255 253
223 215 227 238 225 219 218 218 220 221 222 225 232 238 246 256 267 281 292 302 293 304 291 288 283 279 276 274 264 258 258 259
233 230 225 234 239 228 225 224 220 222 226 229 234 239 245 252 262 278 291 286 282 281 286 297 294 285 278 281 273 266 257 255
238 237 230 229 236 239 232 230 228 223 224 230 233 237 243 249 260 270 277 273 279 282 300 302 315 291 271 275 272 268 263 256
295 286 240 238 242 243 236 235 233 232 228 229 233 238 243 250 258 267 264 285 294 289 282 286 307 286 280 298 270 257 242 263
283 288 279 252 245 246 235 237 234 232 233 234 236 241 245 249 253 250 263 270 271 275 272 278 285 270 264 248 178 226 282 267
277 278 278 285 257 250 242 236 244 236 234 235 238 243 244 247 247 239 247 252 257 265 265 268 272 285 275 262 234 249 265 264
267 279 284 282 282 255 236 233 240 242 240 236 236 246 243 244 241 247 246 249 255 254 247 259 268 263 263 272 244 246 254 260
262 283 295 281 269 258 241 234 242 243 245 241 239 238 233 229 240 251 249 248 250 257 257 270 258 244 257 269 248 237 244 242
267 288 294 290 264 248 239 234 237 233 238 242 239 239 231 224 239 252 245 239 246 253 254 258 257 256 257 264 242 240 240 235
275 285 284 271 255 237 228 225 216 219 225 225 223 216 218 225 247 258 257 248 244 255 264 262 264 268 262 247 239 229 236 237
276 282 265 252 247 242 229 221 217 216 216 211 208 214 229 240 254 262 265 257 252 255 262 266 272 267 259 248 235 232 237 240
265 268 258 240 243 236 229 219 214 218 218 214 216 220 219 240 255 259 271 264 266 263 265 266 270 260 252 242 230 232 237 240
255 248 239 237 233 231 221 217 205 217 217 213 221 225 239 249 250 257 252 261 267 269 275 272 262 251 238 225 228 231 243 240
255 244 235 236 236 225 219 214 219 211 215 229 229 222 238 237 244 257 261 270 270 272 275 264 255 240 231 223 218 239 256 236
232 232 230 230 211 208 211 207 196 190 194 202 206 221 229 236 249 260 273 273 272 272 267 258 242 235 225 221 231 215 193 223
217 225 229 212 200 207 203 189 167 186 195 206 211 211 223 246 252 264 285 282 277 272 256 234 226 224 222 226 229 225 207 162
Wind_Speed_850mb
24 25 30 31 31 32 35 36 34 32 28 22 16 10 6 3 9 11 10 7 10 15 15 16 18 19 18 17 15 15 20 21
23 20 28 33 35 37 38 40 38 36 32 27 21 16 12 10 13 17 18 14 12 15 19 20 21 22 25 27 24 23 27 23
34 34 33 34 38 40 42 44 44 42 37 32 28 23 21 18 18 22 23 22 18 19 21 22 23 24 27 29 30 29 32 31
40 49 46 47 44 47 49 50 50 48 43 39 36 32 29 27 25 26 25 23 17 16 17 20 23 25 27 28 33 37 35 36
46 54 56 52 50 51 55 58 57 55 51 48 44 40 37 35 31 28 29 22 19 20 17 20 24 27 28 30 31 33 36 37
45 54 63 63 61 57 58 61 64 61 59 57 53 49 46 44 36 30 29 20 22 25 24 22 21 24 27 28 29 28 27 32
37 41 56 58 57 65 60 60 68 67 66 67 63 59 56 48 40 34 32 21 24 24 26 24 21 13 11 14 23 23 18 16
44 41 32 42 53 64 69 58 59 71 75 73 67 66 62 54 43 37 30 23 30 26 31 24 23 23 16 9 2 6 14 19
51 42 40 43 43 60 74 68 61 57 69 75 72 73 69 60 51 40 31 35 33 31 28 23 24 21 26 23 15 14 17 25
55 37 37 44 52 60 73 77 67 61 54 52 48 56 64 62 45 37 42 36 32 32 29 23 26 27 28 28 24 22 33 32
34 34 45 41 45 56 69 80 69 63 54 49 42 40 45 43 36 38 38 31 33 35 31 37 39 30 35 35 32 27 25 36
35 44 48 45 41 44 61 76 72 64 54 51 43 39 39 40 38 39 41 45 43 43 45 40 43 47 51 45 38 33 30 30
37 46 47 43 42 38 57 77 66 55 50 43 40 44 41 37 42 43 40 42 41 43 46 44 40 39 40 35 38 35 28 32
36 47 37 47 48 46 48 76 80 68 54 50 48 49 41 39 43 42 38 30 35 42 44 45 46 39 34 34 31 42 41 38
51 37 42 46 47 48 50 63 70 70 54 48 41 28 34 34 38 39 32 28 37 43 43 42 42 32 29 28 30 33 35 34
41 37 43 48 49 50 56 57 60 54 55 48 45 38 36 38 36 33 33 38 44 45 40 39 32 29 30 30 30 29 26 27
45 42 40 41 45 50 51 45 36 39 46 39 37 41 38 39 41 43 40 39 41 43 40 34 28 28 29 32 27 20 11 23
42 43 32 31 43 43 39 30 27 27 24 24 28 36 41 41 42 40 36 32 28 28 28 25 25 30 29 28 28 18 10 13
45 32 25 29 40 40 33 30 35 38 30 33 35 29 32 34 38 37 35 29 26 26 24 22 21 24 24 26 28 33 23 8
Wind_Direction_850mb
213 206 199 197 199 200 200 196 193 193 196 196 195 200 214 298 332 330 311 305 283 277 266 269 271 274 280 273 260 249 266 272
220 237 211 212 209 208 207 205 203 202 205 211 217 223 239 267 296 308 316 315 295 273 278 276 266 262 261 262 261 246 251 253
205 221 242 220 219 216 215 214 214 212 214 219 228 234 244 257 277 288 299 314 307 291 281 282 275 270 266 263 257 256 255 253
223 215 227 238 225 219 218 218 220 221 222 225 232 238 246 256 267 281 292 302 293 304 291 288 283 279 276 274 264 258 258 259
233 230 225 234 239 228 225 224 220 222 226 229 234 239 245 252 262 278 291 286 282 281 286 297 294 285 278 281 273 266 257 255
238 237 230 229 236 239 232 230 228 223 224 230 233 237 243 249 260 270 277 273 279 282 300 302 315 291 271 275 272 268 263 256
295 286 240 238 242 243 236 235 233 232 228 229 233 238 243 250 258 267 264 285 294 289 282 286 307 286 280 298 270 257 242 263
283 288 279 252 245 246 235 237 234 232 233 234 236 241 245 249 253 250 263 270 271 275 272 278 285 270 264 248 178 226 282 267
277 278 278 285 257 250 242 236 244 236 234 235 238 243 244 247 247 239 247 252 257 265 265 268 272 285 275 262 234 249 265 264
267 279 284 282 282 255 236 233 240 242 240 236 236 246 243 244 241 247 246 249 255 254 247 259 268 263 263 272 244 246 254 260
262 283 295 281 269 258 241 234 242 243 245 241 239 238 233 229 240 251 249 248 250 257 257 270 258 244 257 269 248 237 244 242
267 288 294 290 264 248 239 234 237 233 238 242 239 239 231 224 239 252 245 239 246 253 254 258 257 256 257 264 242 240 240 235
275 285 284 271 255 237 228 225 216 219 225 225 223 216 218 225 247 258 257 248 244 255 264 262 264 268 262 247 239 229 236 237
276 282 265 252 247 242 229 221 217 216 216 211 208 214 229 240 254 262 265 257 252 255 262 266 272 267 259 248 235 232 237 240
265 268 258 240 243 236 229 219 214 218 218 214 216 220 219 240 255 259 271 264 266 263 265 266 270 260 252 242 230 232 237 240
255 248 239 237 233 231 221 217 205 217 217 213 221 225 239 249 250 257 252 261 267 269 275 272 262 251 238 225 228 231 243 240
255 244 235 236 236 225 219 214 219 211 215 229 229 222 238 237 244 257 261 270 270 272 275 264 255 240 231 223 218 239 256 236
232 232 230 230 211 208 211 207 196 190 194 202 206 221 229 236 249 260 273 273 272 272 267 258 242 235 225 221 231 215 193 223
217 225 229 212 200 207 203 189 167 186 195 206 211 211 223 246 252 264 285 282 277 272 256 234 226 224 222 226 229 225 207 162